Sign In / Sign Up
 
 
Wind Catchers Regatta. Leg 1. 26/06 - 02/07



Race Date (UTC) # I place II place III place Track
Race3096 2017-06-28 21:50:39 8 Snipe 3000 Ki
Race3095 2017-06-28 21:49:48 8 Ronecrew Ocita Juggernaut
Race3094 2017-06-28 21:48:45 8 Vendetta Tur711 TURKingPinguin
Race3093 2017-06-28 21:48:07 8 FANCULO caraculo ME DUELE LA POYA
Race3092 2017-06-28 21:47:16 8 DANCER RCLaser27 Peludo
Race3091 2017-06-28 21:46:34 8 APCC Tytus LILO11
Race3090 2017-06-28 21:45:17 8 ZDAMEN Agata UKRAINE
Race3089 2017-06-28 21:44:29 8 Snipe ENEMYONE tribord 06
Race3088 2017-06-28 21:44:15 8 Comrade Antigua 3000
Race3087 2017-06-28 21:43:33 8 fartypants Juggernaut Ronecrew
Race3086 2017-06-28 21:42:42 8 Vendetta Itchy carolina
Race3085 2017-06-28 21:42:23 8 caneco Musashi mcblack
Race3084 2017-06-28 21:41:25 8 PamperoMDQ Peludo stefano151
Race3083 2017-06-28 21:40:34 8 ME DUELE LA POYA PETTONY caraculo
Race3082 2017-06-28 21:39:31 8 between the sheets POL220 436
Race3081 2017-06-28 21:38:33 5 ENEMYONE UKRAINE Pendik Brandalpoppies
Race3080 2017-06-28 21:38:00 8 tribord 06 TROP Hichem
Race3079 2017-06-28 21:37:19 8 Juggernaut Barbablu/POLICE, I wish you short life and painful death. Honestly. And to your mother (WHORE) too. brgd. StipecoachCROATIA Antigua
Race3078 2017-06-28 21:36:53 8 federico carolina cricola
Race3077 2017-06-28 21:35:51 8 Jack Sparrow Itchy jahon
Race3076 2017-06-28 21:34:46 8 stefano151 Dog's Bark PamperoMDQ
Race3075 2017-06-28 21:34:29 8 Offer Isr ME DUELE LA POYA PETTONY
Race3074 2017-06-28 21:33:25 8 rush Nautigus POL220
Race3073 2017-06-28 21:32:41 8 Erotica Stella dell'Est mustafa
Race3072 2017-06-28 21:32:08 8 Comrade Yes We Musashi
Race3071 2017-06-28 21:31:33 8 Agata tas kolman Ronecrew
Race3070 2017-06-28 21:31:08 8 federico RCLaser27 Juggernaut
Race3069 2017-06-28 21:29:21 8 tribord 06 Jack Sparrow thieumsleo
Race3068 2017-06-28 21:29:01 8 PamperoMDQ Aurora UKRAINE
Race3067 2017-06-28 21:28:02 8 lift off star6546 stefano151
Race3066 2017-06-28 21:27:32 8 Kill Bill ME DUELE LA POYA caraculo
Race3065 2017-06-28 21:27:14 8 mustafa Dog's Bark Jurmo67
Race3064 2017-06-28 21:26:31 8 Ploma Stella dell'Est Ocita
Race3063 2017-06-28 21:25:52 8 tas kolman Erotica tropical
Race3062 2017-06-28 21:25:03 8 Comrade ITA 1848 Ronecrew
Race3061 2017-06-28 21:24:31 8 Jack Sparrow yolo Kforce
Race3060 2017-06-28 21:23:28 8 Antigua Vendetta Juggernaut
Race3059 2017-06-28 21:22:33 8 poppopop RCLaser27 UKRAINE
Race3058 2017-06-28 21:22:07 8 tribord 06 kite EOF alias atlas u are a coward! U do not even use your name! ahaha! u will never ever finish a race again. U do not deserve to play untill you do not understand what respect is! Coward! hide your self with other name but you will always shit! ahaha
Race3057 2017-06-28 21:21:29 8 Dolce&Maccarra FANCULO Windwillow
Race3056 2017-06-28 21:20:52 8 Jurmo67 SIRTECOM Hichem
Race3055 2017-06-28 21:20:29 8 ME DUELE LA POYA HOT TODDY 436
Race3054 2017-06-28 21:19:58 8 tas kolman Yes We ciuca89
Race3053 2017-06-28 21:19:24 8 mustafa killadrones.com ITA 1848
Race3052 2017-06-28 21:18:49 8 frida k Kforce Musashi
Race3051 2017-06-28 21:18:16 8 ENEMYONE youppi03:50:40 Antigua
Race3050 2017-06-28 21:17:29 8 Vendetta Ronecrew Barbablu/POLICE, I wish you short life and painful death. Honestly. And to your mother (WHORE) too. brgd. StipecoachCROATIA
Race3049 2017-06-28 21:16:40 8 yolo Juggernaut Leandro
Race3048 2017-06-28 21:15:59 8 EOF alias atlas u are a coward! U do not even use your name! ahaha! u will never ever finish a race again. U do not deserve to play untill you do not understand what respect is! Coward! hide your self with other name but you will always shit! ahaha Aurora tribord 06
Race3047 2017-06-28 21:15:22 8 Windwillow Dolce&Maccarra Leon Racing Team
Race3046 2017-06-28 21:14:34 8 kite UKRAINE Dog's Bark
Race3045 2017-06-28 21:14:09 8 DANCER diogenes Stella dell'Est
Race3044 2017-06-28 21:13:46 8 ME DUELE LA POYA caraculo PETTONY
Race3043 2017-06-28 21:13:00 8 tropical RCLaser27 ITA 1848
Race3042 2017-06-28 21:12:31 8 El Diablo Scocca Erotica
Race3041 2017-06-28 21:12:01 8 Vendetta youppi03:50:40 Jack Sparrow
Race3040 2017-06-28 21:11:03 8 Harry Nautigus piratinha
Race3039 2017-06-28 21:09:55 8 tribord 06 Aurora Feten Zia
Race3038 2017-06-28 21:09:05 8 Ploma jahon mustafa
Race3037 2017-06-28 21:08:17 8 NED-115 Albarone kite
Race3036 2017-06-28 21:07:40 8 aXon BAWBAG DANCER
Race3035 2017-06-28 21:07:08 8 ME DUELE LA POYA tas kolman ITA 1848
Race3034 2017-06-28 21:06:21 8 RCLaser27 tropical Ronecrew
Race3033 2017-06-28 21:05:57 8 Vendetta Bali UKRAINE
Race3032 2017-06-28 21:05:03 8 youppi03:50:40 PONTEDEUME Tamariu
Race3031 2017-06-28 21:04:30 8 Juggernaut TGIF Feten Zia
Race3030 2017-06-28 21:03:40 8 zippo Leandro Funky Monk
Race3029 2017-06-28 21:02:55 8 ELIOTLUCAS 1 Stay Spoken Tbone
Race3028 2017-06-28 21:02:05 8 frida k Dog's Bark zepistacho
Race3027 2017-06-28 21:01:42 8 Leo DANCER Julian
Race3026 2017-06-28 21:01:03 8 LILO11 ITA 1848 Stella dell'Est
Race3025 2017-06-28 21:00:38 8 ME DUELE LA POYA PETTONY tas kolman
Race3024 2017-06-28 21:00:10 8 TED nemesis RCLaser27
Race3023 2017-06-28 20:59:15 8 Malvinas PONTEDEUME UKRAINE
Race3022 2017-06-28 20:58:56 8 Jack Sparrow tribord 06 diogenes
Race3021 2017-06-28 20:58:22 8 youppi03:50:40 muja TGIF
Race3020 2017-06-28 20:57:44 8 kite fly030 Marinovic
Race3019 2017-06-28 20:56:55 8 Stay Spoken Leandro orion
Race3018 2017-06-28 20:56:10 8 Dog's Bark AccordDigital zepistacho
Race3017 2017-06-28 20:55:58 8 frida k BAWBAG DANCER
Race3016 2017-06-28 20:55:37 8 Julian zippo lele boat
Race3015 2017-06-28 20:55:06 8 FabioCaldeo Bariscanİstemi Egun Onak
Race3014 2017-06-28 20:54:25 8 Ocell shitNAZI ITA 1848
Race3013 2017-06-28 20:53:59 8 PONTEDEUME tropical PETTONY
Race3012 2017-06-28 20:52:49 8 ITA 24 nemesis Malvinas
Race3011 2017-06-28 20:52:37 8 RCLaser27 tribord 06 Jack Sparrow
Race3010 2017-06-28 20:51:54 8 Norman Matushka Erotica
Race3009 2017-06-28 20:51:35 8 Speedy Rags youppi03:50:40 Marinovic
Race3008 2017-06-28 20:50:27 8 SailAlong Stay Spoken Tovar
Race3007 2017-06-28 20:49:52 8 El Diablo POL 77 fly030
Race3006 2017-06-28 20:49:29 8 FabioCaldeo DANCER BAWBAG
Race3005 2017-06-28 20:48:42 8 shitNAZI ITA 1848 ONADES I VENTADES
Race3004 2017-06-28 20:48:10 8 ciuca89 nir ISR New Jersey TED
Race3003 2017-06-28 20:47:36 8 AccordDigital Leo Ekstrakcja
Race3002 2017-06-28 20:46:16 8 Clerico ITA 24 Ocean
Race3001 2017-06-28 20:45:52 8 Distraction RCLaser27 Jack Sparrow
Race3000 2017-06-28 20:44:46 8 Bariscanİstemi nemesis Jamile
Race2999 2017-06-28 20:44:18 8 El Diablo Egun Onak POL 77
Race2998 2017-06-28 20:43:20 8 BAWBAG DANCER youppi03:50:40
Race2997 2017-06-28 20:42:34 8 Tytus Funky Monk TEMPLARIO